Location: Unspecified
(0.0000°N, 0.0000°E)
Time: 14:54:13
(UTC+00:00)

deb Delta 126 - Pass Details

Date: 22 February 2026
Orbit: 1137 x 1258 km, 102.0° (Epoch: 8 March)

Event Time Altitude Azimuth Distance (km) Brightness Sun altitude
Rises 03:42:41 0° 175° (S) 4,197 ? -37.0°
Reaches altitude 10° 03:45:24 10° 180° (S) 3,235 ? -36.3°
Enters shadow 03:48:17 25° 190° (S) 2,294 ? -35.6°
